Location: Beutels
(47.8767°N, 9.8584°E)
Time: 05:47:33
(UTC+00:00)

Cosmos 1300 - Pass Details

Date: 19 May 2025
Orbit: 394 x 397 km, 82.5° (Epoch: 14 June)

Event Time Altitude Azimuth Distance (km) Brightness Sun altitude
Rises 23:49:33 0° 341° (NNW) 2,317 7.1 -21.7°
Reaches altitude 10° 23:51:42 10° 331° (NNW) 1,451 5.7 -21.7°
Enters shadow 23:53:40 26° 299° (WNW) 817 3.9 -21.6°
